Tracking 28790 objects as of 19-Apr-2024
HD Live streaming from Space Station
objects crossing your sky now

CZ-4 DEB

Track CZ-4 DEB now!
10-day predictions


NORAD ID: 39052
Int'l Code: 1999-057SZ
Perigee: 557.2 km
Apogee: 645.5 km
Inclination: 98.7 °
Period: 96.6 minutes
Semi major axis: 6972 km
RCS: 0.003 m2 (small)
Launch date: October 14, 1999
Source: People's Republic of China (PRC)
Launch site: Taiyaun Space Center, China (TSC)

Note: This is SATELLITE DEBRIS
Your satellite tracking list
Your tracking list is empty




NASA's NSSDC Master Catalog

Two Line Element Set (TLE):
1 39052U 99057SZ  24107.06187461  .00003269  00000-0  32372-3 0  9996
2 39052  98.7004  43.9996 0063340  80.7285 280.1086 14.91183069620538
Source of the keplerian elements: AFSPC